Grayling, MI

12:42 AM EDT on March 24, 2017 (GMT -0400)
Grayling

Weather History for KGOV - October, 2012

Change the Weather History Date:

Tuesday, October 2, 2012

  Actual Average (KHTL) Record (KHTL)
Temperature  
Mean Temperature 55 °F -  
Max Temperature 75 °F 63 °F 85 °F (1971)
Min Temperature 35 °F 42 °F 25 °F (1935)
Degree Days  
Heating Degree Days 10    
Growing Degree Days 5 (Base 50)    
Moisture  
Dew Point 40 °F    
Average Humidity 69    
Maximum Humidity 100    
Minimum Humidity 25    
Precipitation  
Precipitation 0.00 in - - ()
Sea Level Pressure  
Sea Level Pressure 29.92 in    
Wind  
Wind Speed 1 mph (ENE)    
Max Wind Speed 7 mph    
Max Gust Speed -    
Visibility 10 miles    
Events      
Averages and records for this station are not official NWS values.
T = Trace of Precipitation, MM = Missing Value Source: NWS Daily Summary

Daily Weather History Graph

Daily Weather History Graph

Search for Another Location

Airport or City:

Trip Planner

Search our weather history database for the weather conditions in past years. The results will help you decide how hot, cold, wet, or windy it might be!

Date:

Astronomy

Oct. 02, 2012 Rise Set
Actual Time 7:38 AM EDT 7:16 PM EDT
Civil Twilight 7:09 AM EDT 7:45 PM EDT
Nautical Twilight 6:35 AM EDT 8:19 PM EDT
Astronomical Twilight 6:01 AM EDT 8:53 PM EDT
Moon 8:20 PM EDT (10/2) 10:13 AM EDT (10/2)
Length of Visible Light 12h 36m
Length of Day
11h 38m
Waning Gibbous, 94% of the Moon is Illuminated
Oct 2
Waning Gibbous
Oct 8
Last Quarter
Oct 15
New
Oct 21
First Quarter
Oct 29
Full

Hourly Weather History & Observations

Time (EDT) Temp. Windchill Dew Point Humidity Pressure Visibility Wind Dir Wind Speed Gust Speed Precip Events Conditions
12:11 AM 42.3 °F - 41.9 °F 99% 29.89 in 10.0 mi Calm Calm - N/A   Clear
12:31 AM 41.7 °F - 41.2 °F 98% 29.89 in 10.0 mi Calm Calm - N/A   Clear
12:51 AM 41.0 °F - 40.5 °F 98% 29.88 in 10.0 mi Calm Calm - N/A   Clear
1:11 AM 41.7 °F - 41.5 °F 99% 29.88 in 10.0 mi Calm Calm - N/A   Clear
1:31 AM 41.0 °F - 40.5 °F 98% 29.88 in 10.0 mi Calm Calm - N/A   Clear
1:51 AM 42.3 °F - 42.1 °F 99% 29.88 in 10.0 mi Calm Calm - N/A   Clear
2:52 AM 42.3 °F - 42.3 °F 100% 29.88 in 10.0 mi Calm Calm - N/A   Clear
3:12 AM 42.3 °F - 42.1 °F 99% 29.87 in 10.0 mi Calm Calm - N/A   Clear
3:32 AM 42.3 °F - 42.1 °F 99% 29.87 in 10.0 mi Calm Calm - N/A   Clear
3:52 AM 41.9 °F - 41.5 °F 99% 29.87 in 10.0 mi Calm Calm - N/A   Clear
4:12 AM 41.2 °F - 41.2 °F 100% 29.88 in 10.0 mi Calm Calm - N/A   Clear
4:32 AM 41.0 °F - 41.0 °F 100% 29.88 in 7.0 mi Calm Calm - N/A   Clear
4:52 AM 41.0 °F - 41.0 °F 100% 29.88 in 10.0 mi Calm Calm - N/A   Clear
5:12 AM 41.0 °F - 41.0 °F 100% 29.88 in 10.0 mi Calm Calm - N/A   Clear
5:32 AM 41.0 °F - 40.6 °F 99% 29.88 in 10.0 mi Calm Calm - N/A   Clear
5:52 AM 41.0 °F - 41.0 °F 100% 29.89 in 10.0 mi Calm Calm - N/A   Clear
6:12 AM 41.0 °F - 41.0 °F 100% 29.89 in 10.0 mi Calm Calm - N/A   Clear
6:32 AM 40.8 °F - 40.8 °F 100% 29.89 in 10.0 mi Calm Calm - N/A   Clear
6:53 AM 39.6 °F - 39.6 °F 100% 29.89 in 10.0 mi Calm Calm - N/A   Clear
7:13 AM 38.3 °F - 38.3 °F 100% 29.90 in 7.0 mi Calm Calm - N/A   Clear
7:33 AM 37.2 °F - 37.2 °F 100% 29.91 in 3.0 mi Calm Calm - N/A   Clear
7:53 AM 36.7 °F 32.9 °F 36.7 °F 100% 29.91 in 1.8 mi NW 4.6 mph - N/A   Mist
8:13 AM 35.4 °F - 35.4 °F 100% 29.91 in 5.0 mi Calm Calm - N/A   Clear
8:33 AM 39.4 °F - 39.4 °F 100% 29.93 in 10.0 mi Calm Calm - N/A   Clear
8:53 AM 42.3 °F 37.9 °F 42.3 °F 100% 29.92 in 10.0 mi NNW 6.9 mph - N/A   Clear
9:13 AM 45.5 °F - 45.3 °F 99% 29.94 in 10.0 mi Calm Calm - N/A   Clear
9:33 AM 50.0 °F - 47.1 °F 90% 29.94 in 10.0 mi Calm Calm - N/A   Clear
9:54 AM 54.7 °F - 48.0 °F 78% 29.93 in 10.0 mi Calm Calm - N/A   Clear
10:14 AM 55.8 °F - 46.9 °F 72% 29.93 in 10.0 mi Calm Calm - N/A   Clear
10:34 AM 58.6 °F - 46.0 °F 63% 29.93 in 10.0 mi Calm Calm - N/A   Clear
10:54 AM 60.8 °F - 44.1 °F 54% 29.93 in 10.0 mi Calm Calm - N/A   Clear
11:14 AM 62.6 °F - 44.1 °F 51% 29.93 in 10.0 mi SE 3.5 mph - N/A   Clear
11:34 AM 63.1 °F - 41.9 °F 46% 29.93 in 10.0 mi SE 3.5 mph - N/A   Clear
11:54 AM 64.8 °F - 40.8 °F 42% 29.93 in 10.0 mi ENE 3.5 mph - N/A   Clear
12:14 PM 65.8 °F - 39.2 °F 38% 29.93 in 10.0 mi SSE 5.8 mph - N/A   Clear
12:34 PM 67.5 °F - 37.9 °F 34% 29.93 in 10.0 mi East 3.5 mph - N/A   Clear
12:54 PM 68.4 °F - 35.6 °F 30% 29.93 in 10.0 mi Calm Calm - N/A   Clear
1:14 PM 70.0 °F - 36.0 °F 29% 29.93 in 10.0 mi SSE 3.5 mph - N/A   Clear
1:34 PM 70.0 °F - 34.5 °F 27% 29.93 in 10.0 mi NW 4.6 mph - N/A   Clear
1:55 PM 70.0 °F - 33.3 °F 26% 29.93 in 10.0 mi Calm Calm - N/A   Clear
2:15 PM 70.0 °F - 32.5 °F 25% 29.91 in 10.0 mi ENE 3.5 mph - N/A   Clear
2:35 PM 70.3 °F - 32.5 °F 25% 29.91 in 10.0 mi Calm Calm - N/A   Clear
2:55 PM 70.2 °F - 32.9 °F 25% 29.91 in 10.0 mi NE 3.5 mph - N/A   Clear
3:10 PM 70.3 °F - 33.6 °F 26% 29.91 in 10.0 mi East 4.6 mph - N/A   Clear
3:30 PM 70.7 °F - 34.0 °F 26% 29.90 in 10.0 mi Calm Calm - N/A   Clear
3:50 PM 70.5 °F - 34.9 °F 27% 29.90 in 10.0 mi Calm Calm - N/A   Clear
4:10 PM 73.2 °F - 37.2 °F 27% 29.89 in 10.0 mi NNW 3.5 mph - N/A   Clear
4:30 PM 73.9 °F - 37.0 °F 26% 29.89 in 10.0 mi Calm Calm - N/A   Clear
4:50 PM 72.7 °F - 36.9 °F 27% 29.89 in 10.0 mi NNW 3.5 mph - N/A   Clear
5:10 PM 75.0 °F - 37.2 °F 25% 29.90 in 10.0 mi NNE 3.5 mph - N/A   Clear
5:31 PM 73.8 °F - 37.6 °F 27% 29.89 in 10.0 mi Calm Calm - N/A   Clear
5:51 PM 71.2 °F - 36.0 °F 27% 29.89 in 10.0 mi NE 5.8 mph - N/A   Clear
6:11 PM 71.1 °F - 36.3 °F 28% 29.90 in 10.0 mi ENE 5.8 mph - N/A   Clear
6:31 PM 70.0 °F - 37.0 °F 30% 29.90 in 10.0 mi East 5.8 mph - N/A   Clear
6:51 PM 69.3 °F - 39.0 °F 33% 29.91 in 10.0 mi East 3.5 mph - N/A   Clear
7:11 PM 61.0 °F - 41.2 °F 48% 29.92 in 10.0 mi Calm Calm - N/A   Clear
7:31 PM 57.4 °F - 42.6 °F 58% 29.92 in 10.0 mi Calm Calm - N/A   Clear
8:11 PM 54.9 °F - 43.3 °F 65% 29.94 in 10.0 mi Calm Calm - N/A   Clear
8:31 PM 51.3 °F - 41.7 °F 70% 29.95 in 10.0 mi Calm Calm - N/A   Clear
8:51 PM 50.0 °F - 41.0 °F 71% 29.96 in 10.0 mi Calm Calm - N/A   Clear
9:12 PM 50.0 °F - 42.3 °F 75% 29.96 in 10.0 mi Calm Calm - N/A   Clear
9:32 PM 45.5 °F 44.2 °F 40.5 °F 83% 29.97 in 10.0 mi NNW 3.5 mph - N/A   Clear
9:52 PM 44.6 °F - 41.5 °F 89% 29.98 in 10.0 mi Calm Calm - N/A   Clear
10:12 PM 45.3 °F - 42.1 °F 88% 29.99 in 10.0 mi Calm Calm - N/A   Clear
10:32 PM 43.9 °F - 41.2 °F 90% 29.99 in 10.0 mi Calm Calm - N/A   Clear
10:52 PM 42.3 °F - 40.5 °F 93% 29.99 in 10.0 mi Calm Calm - N/A   Clear
11:12 PM 41.7 °F - 39.4 °F 91% 29.99 in 10.0 mi Calm Calm - N/A   Clear
11:32 PM 41.0 °F - 39.6 °F 95% 29.99 in 10.0 mi Calm Calm - N/A   Clear
11:52 PM 41.0 °F - 40.3 °F 97% 29.99 in 10.0 mi Calm Calm - N/A   Clear